OneWeb SL0434

operational
NORAD ID: 51631 Int'l Des: 2022-012 Owner: ONEWEBN Country: UK Constellation: oneweb
LEOCIRCULARPOLARONEWEB_TYPE

OneWeb SL0434について

説明を読み込み中...

リアルタイム位置

3D地球を読み込み中...

次回通過

高度履歴

Altitude vs Time

uPlot chart will show altitude changes over time

軌道要素

1 51631U 22012K 26034.48543677 -.00000646 00000-0 -18864-2 0 9999
2 51631 87.8751 62.9361 0002253 79.9764 280.1618 13.10372050191813
Epoch: Feb 3, 2026 • Age: 11 hours

現在のステータス

高度 1223.2 km
速度 7.24 km/s
衛星直下点 17.15°N, 51.62°W
打ち上げ日 Feb 10, 2022
運用期間 3.9 years
タイプ internet

技術仕様

分類 Payload
質量 148.00 kg
乾燥質量 140.00 kg
総質量 148.00 kg
長さ 1.30 m
直径 1.00 m
スパン 5.00 m
形状 Trapezoid+2 pan
製造者 ONEWUS
バスタイプ ARROW
フェーズステータス In Orbit
所有者/国 ONEWEBN/UK

大規模コンステレーション

Loading constellations...